GW0207 Weather Reports


time (UTC)temp
C
wind
direction
speed
KPH
gust
KPH
rain 1hr
cm
rain 24hr
cm
rain mn
cm
humidity
%
barometer
mb
20260510183855 29 0 0.0 3.2 0.00 0.00 0.00 38 1013.5
20260510183357 29 108 0.0 4.8 0.00 0.00 0.00 36 1013.6
20260510182857 28 61 0.0 4.8 0.00 0.00 0.00 36 1013.7
20260510182356 29 335 0.0 3.2 0.00 0.00 0.00 36 1013.7
20260510181855 28 207 0.0 3.2 0.00 0.00 0.00 35 1013.7
20260510181615 28 101 0.0 3.2 0.00 0.00 0.00 37 1013.8
20260510180853 28 58 0.0 3.2 0.00 0.00 0.00 40 1013.8
20260510180355 28 249 0.0 3.2 0.00 0.00 0.00 38 1013.8
20260510175853 28 93 0.0 4.8 0.00 0.00 0.00 37 1013.9
20260510175352 28 279 1.6 9.7 0.00 0.00 0.00 37 1014.0
20260510174851 28 27 0.0 9.7 0.00 0.00 0.00 38 1014.1
20260510174608 28 84 0.0 3.2 0.00 0.00 0.00 41 1014.1
20260510173839 28 78 0.0 4.8 0.00 0.00 0.00 39 1014.0
20260510173339 28 22 0.0 4.8 0.00 0.00 0.00 41 1014.0
20260510172837 28 113 0.0 3.2 0.00 0.00 0.00 40 1014.1
20260510172337 28 95 0.0 1.6 0.00 0.00 0.00 38 1014.0
20260510171838 27 3 0.0 1.6 0.00 0.00 0.00 40 1014.0
20260510171337 27 82 0.0 1.6 0.00 0.00 0.00 41 1014.1
20260510170834 27 57 0.0 1.6 0.00 0.00 0.00 42 1014.1
20260510170333 27 71 0.0 4.8 0.00 0.00 0.00 38 1014.1
20260510165833 27 233 0.0 4.8 0.00 0.00 0.00 39 1014.1
20260510165554 27 197 0.0 4.8 0.00 0.00 0.00 42 1014.2
20260510164833 27 55 0.0 8.0 0.00 0.00 0.00 41 1014.2
20260510164810 27 256 0.0 8.0 0.00 0.00 0.00 39 1014.3
20260510163834 27 72 0.0 6.4 0.00 0.00 0.00 40 1014.3
20260510163331 27 45 0.0 6.4 0.00 0.00 0.00 39 1014.3
20260510163052 27 105 0.0 3.2 0.00 0.00 0.00 42 1014.3
20260510162331 27 359 0.0 6.4 0.00 0.00 0.00 41 1014.4
20260510162047 27 86 0.0 6.4 0.00 0.00 0.00 42 1014.4
20260510161329 26 230 0.0 4.8 0.00 0.00 0.00 42 1014.4
20260510160829 26 245 0.0 4.8 0.00 0.00 0.00 42 1014.4
20260510160329 26 245 0.0 6.4 0.00 0.00 0.00 46 1014.6
20260510155828 26 236 0.0 6.4 0.00 0.00 0.00 46 1014.6
20260510155329 26 345 0.0 3.2 0.00 0.00 0.00 47 1014.7
20260510154829 26 181 0.0 1.6 0.00 0.00 0.00 47 1014.8
20260510154329 26 346 0.0 1.6 0.00 0.00 0.00 50 1014.9
20260510154046 26 187 0.0 4.8 0.00 0.00 0.00 51 1014.9
20260510153329 26 227 0.0 4.8 0.00 0.00 0.00 50 1015.0
20260510153056 26 239 0.0 3.2 0.00 0.00 0.00 50 1014.9
20260510152328 26 72 0.0 6.4 0.00 0.00 0.00 54 1014.8
20260510152307 26 230 0.0 6.4 0.00 0.00 0.00 51 1014.8
20260510151329 26 242 0.0 1.6 0.00 0.00 0.00 53 1014.8
20260510150829 26 354 0.0 1.6 0.00 0.00 0.00 55 1014.8
20260510150329 25 358 0.0 3.2 0.00 0.00 0.00 56 1014.8
20260510145829 25 353 0.0 3.2 0.00 0.00 0.00 57 1014.7
20260510145329 25 336 0.0 3.2 0.00 0.00 0.00 57 1014.9
20260510144831 25 359 0.0 3.2 0.00 0.00 0.00 55 1014.8
20260510144331 25 357 0.0 4.8 0.00 0.00 0.00 56 1014.8
20260510143831 25 62 0.0 4.8 0.00 0.00 0.00 57 1014.8
20260510143330 25 103 0.0 1.6 0.00 0.00 0.00 58 1014.7
20260510142832 25 2 0.0 1.6 0.00 0.00 0.00 58 1014.7
20260510142331 25 338 0.0 1.6 0.00 0.00 0.00 62 1014.6
20260510141831 24 334 0.0 1.6 0.00 0.00 0.00 63 1014.6
20260510141329 24 121 0.0 3.2 0.00 0.00 0.00 65 1014.6
20260510141047 23 356 0.0 3.2 0.00 0.00 0.00 65 1014.7
20260510140330 23 352 0.0 3.2 0.00 0.00 0.00 67 1014.8
20260510135831 23 354 0.0 3.2 0.00 0.00 0.00 66 1014.7
20260510135331 23 277 0.0 4.8 0.00 0.00 0.00 68 1014.8
20260510134828 23 299 0.0 4.8 0.00 0.00 0.00 69 1014.8
20260510134329 23 77 0.0 6.4 0.00 0.00 0.00 72 1014.6
20260510133829 22 332 0.0 6.4 0.00 0.00 0.00 70 1014.7
20260510133329 22 342 0.0 1.6 0.00 0.00 0.00 75 1014.7
20260510132829 22 356 0.0 3.2 0.00 0.00 0.00 75 1014.6
20260510132329 22 27 0.0 3.2 0.00 0.00 0.00 77 1014.7
20260510131829 21 356 0.0 3.2 0.00 0.00 0.00 79 1014.7
20260510131329 21 124 0.0 3.2 0.00 0.00 0.00 81 1014.6
20260510130829 21 105 0.0 3.2 0.00 0.00 0.00 82 1014.5
20260510130551 21 349 0.0 0.0 0.00 0.00 0.00 86 1014.4
20260510125829 20 349 0.0 0.0 0.00 0.00 0.00 89 1014.3
20260510125331 20 349 0.0 0.0 0.00 0.00 0.00 91 1014.3
20260510124829 19 349 0.0 0.0 0.00 0.00 0.00 94 1014.2
20260510124328 18 349 0.0 1.6 0.00 0.00 0.00 95 1014.2
20260510124051 17 351 0.0 1.6 0.00 0.00 0.00 96 1014.2
20260510123330 17 346 0.0 0.0 0.00 0.00 0.00 97 1014.2
20260510122829 17 22 0.0 0.0 0.00 0.00 0.00 97 1014.2
20260510122329 16 109 0.0 0.0 0.00 0.00 0.00 97 1014.2
20260510121828 16 159 0.0 0.0 0.00 0.00 0.00 97 1014.2
20260510121329 16 158 0.0 0.0 0.00 0.00 0.00 97 1014.1
20260510120829 16 158 0.0 0.0 0.00 0.00 0.00 97 1014.0
20260510120329 16 158 0.0 0.0 0.00 0.00 0.00 97 1014.0
20260510115828 16 158 0.0 0.0 0.00 0.00 0.00 97 1014.0
20260510115329 16 158 0.0 0.0 0.00 0.00 0.00 97 1014.0
20260510114829 16 159 0.0 0.0 0.00 0.00 0.00 97 1013.8
20260510114328 16 159 0.0 0.0 0.00 0.00 0.00 97 1013.8
20260510113829 15 159 0.0 0.0 0.00 0.00 0.00 97 1013.7
20260510113330 15 158 0.0 0.0 0.00 0.00 0.00 97 1013.7
20260510113051 15 158 0.0 0.0 0.00 0.00 0.00 97 1013.6
20260510112329 15 158 0.0 0.0 0.00 0.00 0.00 97 1013.5
20260510111829 15 158 0.0 0.0 0.00 0.00 0.00 97 1013.5
20260510111329 15 159 0.0 0.0 0.00 0.00 0.00 97 1013.4
20260510111050 15 159 0.0 0.0 0.00 0.00 0.00 97 1013.3
20260510110329 15 153 0.0 0.0 0.00 0.00 0.00 97 1013.1
20260510105829 15 153 0.0 0.0 0.00 0.00 0.00 97 1013.1
20260510105329 15 153 0.0 0.0 0.00 0.00 0.00 97 1013.2
20260510104828 14 151 0.0 0.0 0.00 0.00 0.00 97 1013.2
20260510104331 14 149 0.0 0.0 0.00 0.00 0.00 97 1013.0
20260510103831 14 149 0.0 0.0 0.00 0.00 0.00 97 1012.7
20260510103329 14 148 0.0 0.0 0.00 0.00 0.00 97 1012.6
20260510102828 14 148 0.0 0.0 0.00 0.00 0.00 97 1012.5
20260510102330 14 148 0.0 0.0 0.00 0.00 0.00 97 1012.5
20260510101829 14 150 0.0 0.0 0.00 0.00 0.00 97 1012.4
20260510101329 14 150 0.0 0.0 0.00 0.00 0.00 97 1012.3
20260510100828 14 150 0.0 0.0 0.00 0.00 0.00 97 1012.3
20260510100548 14 150 0.0 0.0 0.00 0.00 0.00 97 1012.3
20260510095829 14 150 0.0 0.0 0.00 0.00 0.00 97 1012.1
20260510095329 15 150 0.0 0.0 0.00 0.00 0.00 97 1012.1
20260510094828 15 150 0.0 0.0 0.00 0.00 0.00 97 1012.0
20260510094329 15 150 0.0 0.0 0.00 0.00 0.00 97 1012.0
20260510093831 15 150 0.0 0.0 0.00 0.00 0.00 97 1011.9
20260510093331 15 150 0.0 0.0 0.00 0.00 0.00 97 1011.9
20260510092831 15 150 0.0 0.0 0.00 0.00 0.00 97 1011.8
20260510092330 15 150 0.0 0.0 0.00 0.00 0.00 96 1011.9
20260510091830 15 150 0.0 0.0 0.00 0.00 0.00 96 1011.8
20260510091329 15 150 0.0 0.0 0.00 0.00 0.00 96 1011.8
20260510090828 15 150 0.0 0.0 0.00 0.00 0.00 97 1011.8
20260510090329 15 150 0.0 0.0 0.00 0.00 0.00 97 1011.7
20260510085830 15 150 0.0 0.0 0.00 0.00 0.00 97 1011.6
20260510085329 15 150 0.0 0.0 0.00 0.00 0.00 97 1011.5
20260510084829 15 150 0.0 0.0 0.00 0.00 0.00 96 1011.5
20260510084552 15 150 0.0 0.0 0.00 0.00 0.00 96 1011.4
20260510084051 15 150 0.0 0.0 0.00 0.00 0.00 96 1011.4
20260510083329 15 150 0.0 0.0 0.00 0.00 0.00 96 1011.5
20260510082829 15 150 0.0 0.0 0.00 0.00 0.00 96 1011.4
20260510082555 15 150 0.0 0.0 0.00 0.00 0.00 96 1011.4
20260510081829 15 150 0.0 0.0 0.00 0.00 0.00 96 1011.3
20260510081551 15 150 0.0 0.0 0.00 0.00 0.00 96 1011.2
20260510080831 15 150 0.0 0.0 0.00 0.00 0.00 96 1011.3
20260510080331 15 150 0.0 0.0 0.00 0.00 0.00 96 1011.4
20260510075830 15 150 0.0 0.0 0.00 0.00 0.00 96 1011.3
20260510075331 15 150 0.0 0.0 0.00 0.00 0.00 96 1011.2
20260510075052 15 150 0.0 0.0 0.00 0.00 0.00 96 1011.2
20260510074329 15 150 0.0 0.0 0.00 0.00 0.00 96 1011.2
20260510074047 15 150 0.0 0.0 0.00 0.00 0.00 96 1011.1
20260510073328 15 150 0.0 0.0 0.00 0.00 0.00 96 1011.1
20260510072829 15 150 0.0 0.0 0.00 0.00 0.00 96 1011.2
20260510072329 15 150 0.0 0.0 0.00 0.00 0.00 96 1011.1
20260510071829 15 150 0.0 0.0 0.00 0.00 0.00 96 1011.3
20260510071328 15 150 0.0 0.0 0.00 0.00 0.00 96 1011.3
20260510070829 15 150 0.0 0.0 0.00 0.00 0.00 96 1011.2
20260510070549 15 150 0.0 0.0 0.00 0.00 0.00 96 1011.2
20260510070047 15 150 0.0 0.0 0.00 0.00 0.00 96 1011.1
20260510065329 15 150 0.0 0.0 0.00 0.00 0.00 96 1011.1
20260510064828 15 150 0.0 0.0 0.00 0.00 0.00 96 1011.1
20260510064330 15 150 0.0 0.0 0.00 0.00 0.00 96 1011.1
20260510063829 15 150 0.0 0.0 0.00 0.00 0.00 95 1011.0
20260510063329 16 150 0.0 0.0 0.00 0.00 0.00 96 1011.0
20260510063308 16 150 0.0 0.0 0.00 0.00 0.00 96 1010.9
20260510062332 16 150 0.0 0.0 0.00 0.00 0.00 96 1010.9
20260510061831 16 150 0.0 0.0 0.00 0.00 0.00 95 1011.0
20260510061331 16 150 0.0 0.0 0.00 0.00 0.00 95 1011.2
20260510060830 16 150 0.0 0.0 0.00 0.00 0.00 95 1011.3
20260510060332 16 150 0.0 0.0 0.00 0.00 0.00 95 1011.3
20260510055831 16 150 0.0 0.0 0.00 0.00 0.00 95 1011.2
20260510055331 16 150 0.0 0.0 0.00 0.00 0.00 95 1011.2
20260510055051 16 150 0.0 0.0 0.00 0.00 0.00 95 1011.3
20260510054333 16 150 0.0 0.0 0.00 0.00 0.00 95 1011.3
20260510053829 16 150 0.0 0.0 0.00 0.00 0.00 95 1011.3
20260510053329 16 150 0.0 0.0 0.00 0.00 0.00 95 1011.3
20260510052828 16 150 0.0 0.0 0.00 0.00 0.00 95 1011.4
20260510052329 16 150 0.0 0.0 0.00 0.00 0.00 95 1011.5
20260510052052 16 150 0.0 0.0 0.00 0.00 0.00 94 1011.5
20260510051329 16 150 0.0 0.0 0.00 0.00 0.00 94 1011.6
20260510050829 16 150 0.0 0.0 0.00 0.00 0.00 95 1011.6
20260510050330 16 150 0.0 0.0 0.00 0.00 0.00 94 1011.6
20260510045828 16 150 0.0 0.0 0.00 0.00 0.00 94 1011.7
20260510045330 16 150 0.0 0.0 0.00 0.00 0.00 94 1011.8
20260510044829 16 150 0.0 0.0 0.00 0.00 0.00 94 1011.9
20260510044332 16 150 0.0 0.0 0.00 0.00 0.00 95 1011.6
20260510043828 16 150 0.0 0.0 0.00 0.00 0.00 94 1011.6
20260510043331 16 150 0.0 0.0 0.00 0.00 0.00 95 1011.6
20260510042831 16 150 0.0 0.0 0.00 0.00 0.00 95 1011.5
20260510042331 16 150 0.0 0.0 0.00 0.00 0.00 94 1011.6
20260510041829 16 150 0.0 0.0 0.00 0.00 0.00 94 1011.6
20260510041330 16 150 0.0 0.0 0.00 0.00 0.00 94 1011.6
20260510040829 16 150 0.0 0.0 0.00 0.00 0.00 95 1011.5
20260510040329 16 150 0.0 0.0 0.00 0.00 0.00 95 1011.5
20260510035829 16 150 0.0 0.0 0.00 0.00 0.00 95 1011.5
20260510035328 16 150 0.0 0.0 0.00 0.00 0.00 94 1011.5
20260510034829 16 150 0.0 0.0 0.00 0.00 0.00 94 1011.4
20260510034329 16 150 0.0 0.0 0.00 0.00 0.00 94 1011.4
20260510033829 16 150 0.0 0.0 0.00 0.00 0.00 94 1011.4
20260510033550 16 150 0.0 0.0 0.00 0.00 0.00 94 1011.3
20260510032829 16 150 0.0 0.0 0.00 0.00 0.00 94 1011.3
20260510032330 16 150 0.0 0.0 0.00 0.00 0.00 94 1011.3
20260510031829 16 150 0.0 0.0 0.00 0.00 0.00 94 1011.3
20260510031328 16 150 0.0 0.0 0.00 0.00 0.00 93 1011.3
20260510030828 16 150 0.0 0.0 0.00 0.00 0.00 93 1011.3
20260510030329 16 150 0.0 0.0 0.00 0.00 0.00 93 1011.1
20260510025829 16 150 0.0 0.0 0.00 0.00 0.00 93 1011.2
20260510025329 16 150 0.0 0.0 0.00 0.00 0.00 93 1011.1
20260510024830 16 150 0.0 0.0 0.00 0.00 0.00 93 1011.2
20260510024555 16 150 0.0 0.0 0.00 0.00 0.00 93 1011.2
20260510023825 16 150 0.0 0.0 0.00 0.00 0.00 92 1011.2
20260510023537 16 150 0.0 0.0 0.00 0.00 0.00 92 1011.1
20260510022820 16 150 0.0 0.0 0.00 0.00 0.00 92 1011.1
20260510022317 17 150 0.0 0.0 0.00 0.00 0.00 92 1011.1
20260510021818 17 150 0.0 0.0 0.00 0.00 0.00 92 1011.2
20260510021317 17 150 0.0 0.0 0.00 0.00 0.00 91 1011.2
20260510020816 17 150 0.0 0.0 0.00 0.00 0.00 91 1011.2
20260510020314 17 150 0.0 0.0 0.00 0.00 0.00 91 1011.0
20260510015811 17 150 0.0 0.0 0.00 0.00 0.00 90 1011.0
20260510015309 17 150 0.0 0.0 0.00 0.00 0.00 90 1011.0
20260510014807 17 150 0.0 0.0 0.00 0.00 0.00 89 1010.9
20260510014305 17 150 0.0 0.0 0.00 0.00 0.00 89 1010.7
20260510013804 17 150 0.0 0.0 0.00 0.00 0.00 89 1010.6
20260510013303 17 150 0.0 0.0 0.00 0.00 0.00 89 1010.6
20260510012804 17 150 0.0 0.0 0.00 0.00 0.00 88 1010.5
20260510012306 18 150 0.0 0.0 0.00 0.00 0.00 88 1010.4
20260510011802 18 150 0.0 0.0 0.00 0.00 0.00 87 1010.4
20260510011303 18 150 0.0 0.0 0.00 0.00 0.00 87 1010.3
20260510010803 18 150 0.0 0.0 0.00 0.00 0.00 86 1010.3
20260510010302 18 150 0.0 0.0 0.00 0.00 0.00 86 1010.3
20260510005803 18 150 0.0 0.0 0.00 0.00 0.00 85 1010.2
20260510005257 18 150 0.0 0.0 0.00 0.00 0.00 85 1010.2
20260510005009 18 150 0.0 0.0 0.00 0.00 0.00 85 1010.2
20260510004510 19 150 0.0 0.0 0.00 0.00 0.00 84 1010.2
20260510003739 19 150 0.0 0.0 0.00 0.00 0.00 84 1010.0
20260510003231 19 150 0.0 0.0 0.00 0.00 0.00 83 1010.3
20260510002730 19 150 0.0 0.0 0.00 0.00 0.00 83 1010.2
20260510002454 20 150 0.0 0.0 0.00 0.00 0.00 82 1010.2
20260510001728 20 150 0.0 0.0 0.00 0.00 0.00 82 1010.2
20260510001230 20 150 0.0 0.0 0.00 0.00 0.00 81 1010.0
20260510000729 20 150 0.0 0.0 0.00 0.00 0.00 80 1009.9
20260510000450 20 150 0.0 0.0 0.00 0.00 0.00 80 1009.9
20260509235729 20 150 0.0 0.0 0.00 0.00 0.00 79 1009.8
20260509235229 21 148 0.0 0.0 0.00 0.00 0.00 79 1009.8
20260509234731 21 145 0.0 0.0 0.00 0.00 0.00 78 1009.6
20260509234229 21 144 0.0 0.0 0.00 0.00 0.00 77 1009.4
20260509233729 21 144 0.0 0.0 0.00 0.00 0.00 77 1009.4
20260509233229 21 143 0.0 0.0 0.00 0.00 0.00 77 1009.6
20260509232729 21 357 0.0 0.0 0.00 0.00 0.00 76 1009.5
20260509232229 21 357 0.0 0.0 0.00 0.00 0.00 76 1009.4
20260509231729 21 357 0.0 1.6 0.00 0.00 0.00 75 1009.2
20260509231228 22 357 0.0 1.6 0.00 0.00 0.00 76 1009.3
20260509230951 22 15 0.0 1.6 0.00 0.00 0.00 74 1009.3
20260509230229 22 47 0.0 1.6 0.00 0.00 0.00 74 1009.2
20260509225729 22 81 0.0 1.6 0.00 0.00 0.00 74 1009.1
20260509225229 22 9 0.0 1.6 0.00 0.00 0.00 74 1009.1
20260509224730 22 216 0.0 1.6 0.00 0.00 0.00 73 1009.2
20260509224231 22 240 0.0 1.6 0.00 0.00 0.00 73 1009.1
20260509223937 22 57 0.0 1.6 0.00 0.00 0.00 72 1009.3
20260509223928 22 50 0.0 1.6 0.00 0.00 0.00 73 1009.3
20260509222731 22 36 0.0 1.6 0.00 0.00 0.00 71 1009.4
20260509222231 22 342 0.0 3.2 0.00 0.00 0.00 72 1009.3
20260509221731 22 45 0.0 3.2 0.00 0.00 0.00 72 1009.4
20260509221450 22 50 0.0 1.6 0.00 0.00 0.00 72 1009.3
20260509220730 22 59 0.0 1.6 0.00 0.00 0.00 71 1009.3
20260509220231 22 29 0.0 3.2 0.00 0.00 0.00 71 1009.4
20260509215731 22 36 0.0 3.2 0.00 0.00 0.00 71 1009.3
20260509215231 22 35 0.0 1.6 0.00 0.00 0.00 71 1009.3
20260509214731 23 39 0.0 1.6 0.00 0.00 0.00 70 1009.3
20260509214231 23 31 0.0 1.6 0.00 0.00 0.00 70 1009.3
20260509213731 23 5 0.0 1.6 0.00 0.00 0.00 70 1009.3
20260509213232 23 81 0.0 1.6 0.00 0.00 0.00 71 1009.1
20260509212731 22 41 0.0 1.6 0.00 0.00 0.00 71 1009.0
20260509212452 22 62 0.0 1.6 0.00 0.00 0.00 71 1009.0
20260509211731 22 46 0.0 1.6 0.00 0.00 0.00 71 1009.0
20260509211231 22 47 0.0 1.6 0.00 0.00 0.00 72 1009.0
20260509210731 22 233 0.0 3.2 0.00 0.00 0.00 72 1009.0
20260509210231 22 50 0.0 3.2 0.00 0.00 0.00 70 1009.1
20260509210216 22 38 0.0 4.8 0.00 0.00 0.00 71 1009.1
20260509205451 22 83 0.0 4.8 0.00 0.00 0.00 70 1009.2
20260509204731 22 41 0.0 1.6 0.00 0.00 0.00 71 1009.2
20260509204231 22 58 0.0 1.6 0.00 0.00 0.00 70 1009.0
20260509203233 22 55 0.0 4.8 0.00 0.00 0.00 70 1009.1
20260509202731 22 106 0.0 4.8 0.00 0.00 0.00 70 1009.1
20260509202231 22 115 0.0 4.8 0.00 0.00 0.00 70 1009.1
20260509201731 22 242 0.0 3.2 0.00 0.00 0.00 70 1009.1
20260509201232 22 7 0.0 3.2 0.00 0.00 0.00 69 1009.1
20260509200732 22 59 0.0 3.2 0.00 0.00 0.00 69 1009.2
20260509200231 22 49 0.0 1.6 0.00 0.00 0.00 69 1009.4
20260509195950 22 149 0.0 1.6 0.00 0.00 0.00 68 1009.3
20260509195231 22 109 0.0 4.8 0.00 0.00 0.00 67 1009.4
20260509194731 22 66 0.0 4.8 0.00 0.00 0.00 66 1009.3
20260509194231 22 48 0.0 3.2 0.00 0.00 0.00 66 1009.3
20260509193953 22 65 0.0 3.2 0.00 0.00 0.00 65 1009.4
20260509193231 22 50 0.0 1.6 0.00 0.00 0.00 64 1009.5
20260509192731 23 48 0.0 1.6 0.00 0.00 0.00 63 1009.7
20260509192231 23 24 0.0 3.2 0.00 0.00 0.00 64 1009.7
20260509191731 23 64 0.0 6.4 0.00 0.00 0.00 64 1009.6
20260509191456 23 58 0.0 6.4 0.00 0.00 0.00 63 1009.7
20260509190730 23 15 0.0 8.0 0.00 0.00 0.00 61 1009.8
20260509190719 23 290 0.0 8.0 0.00 0.00 0.00 59 1009.7
20260509185731 24 43 0.0 4.8 0.00 0.00 0.00 59 1009.6
20260509185233 24 52 0.0 4.8 0.00 0.00 0.00 57 1009.6
20260509184730 24 275 0.0 12.9 0.00 0.00 0.00 58 1009.6